Wind_Speed
12 14 16 17 12 12 15 15 10 13 13 12 11 8 12 14 14 13 9 9 6 7 11 14 17 22 27 27 30 34 42 45 48 53 55 57 59 57 54 46 46 50 54 57 59 58 55 56 56
6 9 12 15 16 13 11 12 12 11 10 8 9 9 9 13 16 13 13 8 8 9 9 13 14 16 19 21 26 28 35 45 46 49 55 57 61 63 62 63 57 49 50 49 56 56 56 55 53
8 7 9 10 12 16 15 13 13 10 9 6 5 8 6 9 9 9 11 13 11 9 9 12 14 14 13 17 21 22 25 30 42 46 50 54 56 59 62 60 64 66 58 56 56 49 51 49 54
14 13 10 9 9 11 13 15 8 10 6 6 5 8 8 8 9 9 9 12 12 12 11 14 14 13 15 15 16 18 20 23 26 34 47 52 51 51 51 52 56 65 64 62 61 64 64 67 67
19 17 16 15 13 11 12 12 13 9 12 7 6 7 9 11 12 12 12 12 12 13 17 16 17 17 16 18 16 17 17 19 21 24 27 30 37 45 48 50 56 58 59 59 59 60 57 60 64
23 23 21 21 20 15 13 12 11 11 12 15 10 10 10 12 12 12 13 12 12 14 17 15 15 16 17 18 17 16 17 18 19 20 21 24 28 32 36 37 38 42 45 47 47 48 51 51 48
28 27 26 27 25 23 18 15 15 14 11 15 17 17 15 14 14 14 13 14 15 14 15 16 15 14 19 22 20 18 19 21 18 18 17 19 20 20 20 23 26 28 29 32 36 39 41 41 39
31 32 32 31 30 28 25 22 19 19 18 12 16 17 21 20 18 17 16 16 17 17 17 18 17 18 17 22 21 19 18 17 18 20 19 17 19 20 19 19 19 19 21 20 25 29 31 31 31
27 29 33 36 35 34 30 28 26 23 21 21 18 17 18 23 24 22 20 19 18 19 19 20 20 22 23 21 19 19 18 16 14 15 16 14 15 19 21 19 20 23 23 25 23 30 33 27 31
27 27 27 30 34 36 37 34 31 30 26 26 22 24 21 21 25 27 26 24 22 21 20 22 23 24 25 23 22 22 20 19 19 19 19 19 19 20 21 21 21 23 25 26 27 27 31 32 34
19 19 20 23 26 32 37 40 35 35 32 26 30 24 27 24 23 26 29 29 27 26 25 26 25 25 28 27 25 25 24 24 24 24 24 23 23 24 25 26 27 30 29 28 28 28 32 33 38
18 18 15 20 20 21 25 33 39 42 33 33 32 31 30 29 27 25 28 28 29 29 28 29 28 29 29 30 31 30 29 28 28 30 30 30 28 30 30 32 33 34 33 33 31 31 32 32 31
20 24 21 20 20 19 19 21 25 39 32 34 37 36 33 33 30 28 28 26 27 30 30 31 31 32 33 34 34 34 34 32 33 31 31 30 32 33 34 34 37 39 36 37 37 34 34 33 34
25 24 26 28 25 21 17 26 26 29 26 30 36 40 40 38 36 34 32 31 32 30 30 31 32 34 35 35 38 37 36 34 35 35 36 34 34 34 34 35 37 37 38 40 38 39 37 38 37
24 21 24 32 30 24 20 32 33 28 26 32 33 36 40 43 42 39 36 34 36 38 37 36 36 37 40 40 41 38 38 37 36 36 36 35 35 37 37 38 40 40 41 43 42 42 42 43 43
31 26 28 38 32 26 20 27 40 31 28 32 33 37 36 41 45 45 41 40 41 40 40 43 42 42 45 47 47 44 44 42 40 42 42 40 40 43 44 45 45 45 44 45 45 46 46 48 49
40 32 30 36 40 32 24 23 41 40 31 32 33 33 34 34 33 43 48 50 47 45 46 47 47 47 48 49 50 50 48 48 47 47 48 47 48 49 49 50 50 51 51 48 49 51 51 53 54
41 38 37 35 47 36 30 25 33 45 39 38 38 36 33 28 27 33 37 49 51 49 48 51 51 50 52 55 57 56 55 55 55 54 54 54 54 54 55 56 55 55 54 53 54 55 57 58 60
37 37 37 43 48 42 36 30 31 40 46 49 46 46 41 36 35 36 36 38 47 50 51 52 52 53 53 55 57 59 60 59 62 61 60 59 58 57 58 58 56 56 57 58 60 62 62 64 65
45 42 38 38 47 43 38 31 34 39 47 52 51 51 45 40 39 38 37 37 39 44 45 47 51 54 56 57 57 57 58 59 59 59 60 60 59 60 59 58 60 62 64 65 67 67 67 67 69
51 52 49 43 45 42 41 30 39 40 41 51 57 54 49 45 41 40 38 39 39 40 41 41 42 47 50 52 52 54 55 55 56 58 59 61 60 60 61 64 66 66 67 67 68 70 72 75 76
54 65 57 53 50 41 45 26 40 46 44 44 54 58 61 57 52 47 47 44 44 45 47 49 51 51 52 53 54 55 56 57 59 61 63 64 65 65 66 68 68 69 69 71 73 76 79 83 85
65 71 69 64 57 50 46 44 34 46 50 49 52 55 61 62 61 59 56 54 53 51 51 54 56 57 57 56 55 56 57 59 63 65 67 68 69 69 69 70 71 74 76 76 78 81 82 84 86
80 82 75 70 70 48 55 59 33 49 52 53 52 54 54 60 60 60 63 62 60 59 59 57 59 58 59 58 58 59 62 63 64 67 70 73 74 73 74 77 78 80 83 84 85 87 89 90 93
86 86 86 74 74 78 75 71 51 56 58 60 61 61 59 59 61 63 65 65 65 63 63 62 62 60 58 58 60 61 62 63 65 69 73 77 79 78 76 75 76 81 81 82 82 82 84 86 88
92 87 92 101 88 74 84 74 62 65 65 60 56 60 68 68 63 62 70 72 72 72 70 71 70 68 66 63 63 64 67 70 74 75 78 81 83 84 86 88 86 85 88 84 83 87 91 91 91
93 93 100 107 102 101 86 83 77 78 72 71 72 79 77 77 77 73 73 76 74 77 75 77 74 73 69 72 71 74 76 79 81 84 87 85 88 91 93 93 92 94 98 95 94 94 96 98 100
103 103 102 109 116 111 101 105 99 88 84 86 89 81 91 79 86 91 80 85 81 80 87 87 82 78 77 81 81 81 83 90 90 94 95 92 92 92 94 95 98 100 102 103 103 104 103 103 104
113 121 121 121 121 124 123 115 101 103 99 98 96 98 98 94 95 100 94 91 89 90 87 89 91 89 84 87 90 90 91 95 96 94 99 103 98 99 102 101 103 106 108 109 110 108 106 107 109
122 136 140 137 134 132 136 136 110 104 107 108 100 101 113 103 101 107 108 102 102 103 99 97 98 93 97 94 95 98 102 103 100 99 100 103 103 104 105 108 113 111 111 112 114 112 115 117 107
Wind_Direction
14 16 14 19 358 336 326 333 317 301 285 277 266 267 265 261 267 276 275 267 237 204 201 195 199 206 213 212 212 213 218 219 222 228 231 232 234 234 233 238 250 255 253 252 254 255 257 258 261
345 351 358 2 358 351 335 334 322 320 297 279 263 261 263 266 262 248 241 217 238 240 207 192 198 202 204 210 213 211 216 216 219 224 228 231 235 236 233 234 235 244 245 256 262 260 260 259 261
301 308 324 347 349 342 351 347 329 334 321 279 238 245 237 227 232 234 226 219 234 219 200 198 196 194 200 204 208 216 222 223 224 226 227 232 236 240 242 243 242 244 245 246 252 249 253 259 272
282 286 295 313 327 326 338 342 339 313 319 296 247 235 226 200 207 227 216 204 204 199 214 204 203 200 192 192 205 210 216 221 226 230 234 237 240 242 242 246 247 245 250 254 250 249 251 257 258
269 272 275 279 288 304 316 323 334 318 296 290 251 233 221 212 214 212 220 198 206 203 201 194 197 199 196 190 195 205 209 213 217 223 230 234 239 246 249 252 252 252 254 256 256 256 255 256 255
266 269 271 270 269 269 277 291 307 307 277 274 270 254 231 231 216 207 213 212 209 201 198 198 197 197 198 191 194 202 207 216 218 215 222 225 228 231 235 239 243 246 247 249 250 253 253 256 254
263 265 268 269 267 267 261 270 278 280 269 270 263 266 259 246 244 233 222 216 212 214 213 221 210 204 200 203 201 198 201 207 213 215 216 225 229 227 226 228 235 240 247 248 252 250 250 249 250
267 264 263 266 266 264 261 254 257 264 272 250 263 255 263 262 253 249 243 234 233 229 227 222 225 217 210 198 201 203 201 200 204 208 214 222 230 229 231 235 242 240 245 256 255 252 257 250 251
282 273 266 264 265 265 261 257 251 252 258 266 264 257 254 257 257 256 257 256 248 241 242 237 227 217 218 218 211 211 210 215 220 216 220 226 228 233 236 241 246 251 253 256 268 252 250 252 255
290 283 280 272 267 266 266 262 255 251 247 258 256 263 259 251 249 252 254 258 257 253 249 249 235 228 229 227 224 220 222 233 232 230 234 238 240 242 250 253 256 259 264 259 261 255 260 251 260
306 294 291 283 276 268 265 265 260 254 243 242 259 253 260 257 250 247 249 251 256 256 253 249 245 245 239 238 237 234 236 235 239 241 240 246 249 255 256 256 259 257 256 261 258 252 253 254 255
323 318 311 306 293 283 275 268 264 260 257 239 247 256 251 256 254 251 248 249 251 249 251 250 247 244 244 244 245 246 245 247 252 257 252 255 259 263 261 263 264 262 262 263 262 262 263 263 264
314 315 313 310 302 308 293 290 280 266 268 257 249 252 250 249 252 253 254 255 252 253 250 250 245 246 244 243 244 248 252 258 263 264 265 264 263 265 268 269 267 266 266 268 266 266 267 272 273
291 302 304 301 298 301 309 305 283 285 272 266 256 251 249 250 250 248 245 251 258 257 252 252 249 244 246 249 248 250 255 259 264 267 267 268 271 276 276 275 273 274 272 272 269 269 271 272 271
285 288 296 291 294 296 301 300 288 289 291 281 267 257 248 249 255 250 250 248 251 255 255 254 254 251 249 250 249 251 255 259 261 260 264 268 271 274 275 276 276 277 276 276 275 275 276 275 277
281 280 288 291 284 287 291 294 289 285 289 282 280 270 260 252 249 256 255 253 256 258 260 260 257 256 256 255 256 257 258 259 260 263 265 268 272 273 275 279 280 278 273 270 271 273 275 277 277
280 281 277 286 286 281 285 284 296 287 281 281 279 276 273 270 264 255 255 258 257 257 260 263 264 260 258 261 261 261 262 263 263 265 269 271 269 270 271 274 278 278 274 272 272 272 274 275 277
279 276 276 274 282 281 277 273 288 295 293 285 282 280 274 276 272 264 261 256 257 259 258 260 262 262 261 259 261 263 264 265 267 267 269 272 273 274 276 281 279 277 274 274 274 276 277 276 277
283 283 275 269 274 276 277 272 278 287 288 287 284 284 282 276 274 271 269 263 260 257 257 258 260 261 262 263 264 264 265 267 268 268 270 274 275 276 278 279 279 279 278 277 277 278 277 277 278
283 278 277 274 277 277 271 272 274 276 281 285 286 284 282 279 275 271 272 272 267 266 262 258 258 259 261 265 265 265 267 268 270 270 272 274 276 278 280 279 280 281 281 281 279 278 278 277 278
282 282 273 273 275 284 274 276 275 275 273 281 285 283 281 279 278 275 271 270 269 270 271 268 264 263 263 265 266 268 269 270 271 272 273 275 277 278 278 279 281 281 281 282 280 280 281 281 281
290 281 280 277 276 274 278 267 271 269 272 273 278 283 282 282 280 277 275 272 271 271 272 272 270 268 268 270 271 270 270 271 273 274 274 276 275 276 277 278 278 279 280 280 281 281 281 282 282
291 290 287 286 283 279 279 272 257 274 278 276 275 274 281 282 278 277 275 275 276 274 273 272 272 271 270 269 270 271 272 272 274 276 277 277 276 276 276 276 277 278 280 280 280 281 282 282 282
284 281 289 286 279 284 285 278 274 266 271 272 273 276 274 276 279 278 278 277 277 276 275 272 270 271 270 271 272 272 273 274 276 277 276 276 276 276 278 281 282 283 284 284 284 285 283 282 283
288 282 283 288 281 278 276 286 285 284 264 263 269 272 274 275 274 278 279 279 277 277 276 274 272 270 271 271 273 275 276 278 281 281 282 283 281 280 281 283 283 284 285 284 283 283 283 282 283
281 281 285 284 286 281 274 286 287 286 284 276 263 270 271 271 275 278 274 272 275 275 277 279 278 278 278 275 273 279 280 283 284 286 284 283 281 284 285 287 288 285 286 283 282 280 282 282 281
280 282 279 282 284 285 290 286 289 287 280 280 280 271 273 272 270 275 279 272 267 269 270 270 270 272 272 272 274 279 278 278 283 284 287 285 283 282 285 285 286 285 287 289 285 286 286 283 285
279 278 280 282 284 281 282 288 293 285 283 284 279 278 275 273 276 275 264 271 261 260 270 272 270 267 271 273 272 274 276 279 281 282 283 285 282 281 282 284 284 285 286 286 287 288 287 288 288
283 286 289 286 286 285 284 282 285 287 285 280 275 279 283 279 274 278 276 261 259 262 262 266 269 270 272 272 274 271 275 279 279 277 278 278 280 282 283 283 284 284 284 284 285 286 289 288 288
283 287 287 283 284 284 284 284 285 279 278 280 277 271 279 275 268 269 274 276 262 266 267 270 267 272 268 273 277 272 275 273 275 276 276 275 278 280 280 281 281 284 283 284 284 285 286 287 284
Height
10835 10833 10831 10829 10827 10824 10822 10821 10820 10818 10816 10816 10815 10814 10812 10811 10810 10808 10807 10805 10805 10805 10805 10803 10803 10804 10805 10808 10810 10813 10816 10820 10824 10829 10833 10835 10837 10841 10842 10841 10844 10846 10847 10851 10853 10855 10858 10861 10864
10836 10834 10832 10829 10826 10824 10823 10821 10819 10818 10816 10815 10814 10813 10812 10811 10810 10809 10807 10805 10804 10805 10805 10805 10804 10804 10803 10805 10806 10808 10810 10812 10816 10820 10823 10826 10828 10831 10834 10837 10841 10843 10842 10841 10843 10847 10850 10853 10855
10834 10832 10831 10830 10827 10823 10822 10820 10817 10817 10816 10814 10813 10813 10812 10811 10809 10809 10808 10807 10805 10804 10805 10804 10804 10805 10804 10804 10804 10806 10808 10810 10813 10816 10819 10822 10825 10827 10829 10832 10835 10836 10840 10842 10840 10841 10844 10844 10843
10832 10831 10830 10828 10827 10823 10821 10819 10818 10816 10816 10815 10813 10812 10812 10811 10809 10808 10806 10806 10806 10805 10804 10804 10804 10803 10803 10803 10804 10805 10805 10807 10809 10812 10815 10817 10820 10822 10824 10826 10828 10830 10832 10834 10835 10837 10838 10838 10840
10828 10828 10827 10827 10826 10823 10820 10818 10815 10815 10815 10815 10813 10812 10811 10810 10809 10808 10807 10807 10805 10805 10804 10803 10802 10802 10802 10802 10803 10803 10803 10805 10806 10807 10810 10812 10814 10816 10818 10819 10820 10822 10824 10826 10827 10828 10829 10831 10832
10824 10824 10824 10823 10823 10822 10819 10817 10815 10814 10812 10812 10812 10811 10810 10809 10808 10807 10805 10806 10805 10805 10804 10803 10803 10803 10803 10802 10802 10802 10803 10803 10803 10804 10807 10807 10809 10810 10812 10813 10814 10815 10816 10818 10817 10817 10818 10819 10820
10820 10819 10819 10819 10818 10817 10817 10815 10813 10811 10810 10808 10808 10808 10808 10807 10806 10805 10804 10804 10803 10803 10804 10803 10803 10802 10802 10802 10802 10802 10802 10803 10803 10804 10804 10805 10805 10806 10807 10808 10808 10809 10810 10810 10809 10809 10810 10811 10812
10815 10815 10814 10813 10813 10812 10811 10811 10810 10808 10806 10805 10803 10804 10803 10802 10802 10802 10801 10802 10801 10800 10800 10800 10801 10800 10800 10801 10801 10802 10802 10802 10802 10802 10802 10802 10803 10803 10804 10805 10805 10804 10805 10804 10805 10805 10805 10806 10806
10809 10809 10808 10807 10807 10807 10806 10805 10805 10804 10803 10801 10799 10799 10800 10799 10798 10798 10797 10798 10798 10797 10797 10796 10797 10797 10798 10797 10798 10798 10798 10799 10800 10801 10801 10800 10800 10800 10801 10801 10801 10801 10801 10801 10801 10801 10801 10801 10800
10805 10804 10802 10802 10800 10799 10799 10799 10799 10798 10798 10797 10796 10794 10794 10795 10794 10793 10793 10792 10792 10792 10793 10792 10793 10793 10793 10793 10793 10793 10794 10795 10795 10795 10796 10797 10796 10796 10796 10796 10796 10796 10796 10796 10796 10796 10795 10794 10794
10800 10799 10797 10795 10794 10792 10792 10790 10793 10791 10791 10793 10790 10791 10789 10789 10789 10788 10788 10787 10787 10786 10787 10787 10787 10787 10788 10788 10788 10789 10790 10789 10790 10790 10790 10790 10790 10790 10791 10791 10790 10790 10790 10789 10789 10788 10788 10787 10787
10794 10793 10792 10790 10788 10788 10786 10784 10785 10781 10783 10786 10784 10784 10784 10783 10782 10782 10782 10782 10781 10781 10781 10780 10780 10781 10781 10781 10781 10782 10782 10782 10783 10783 10783 10783 10782 10782 10783 10782 10781 10780 10780 10779 10778 10778 10778 10778 10776
10790 10787 10787 10785 10783 10783 10782 10780 10777 10768 10776 10778 10779 10777 10777 10776 10777 10777 10775 10776 10776 10775 10774 10774 10774 10774 10773 10773 10774 10774 10774 10775 10775 10774 10773 10772 10773 10774 10773 10771 10771 10771 10770 10770 10770 10769 10769 10767 10766
10784 10782 10780 10778 10778 10779 10778 10771 10767 10765 10770 10767 10769 10768 10769 10769 10770 10770 10770 10771 10770 10770 10769 10768 10767 10767 10766 10766 10766 10766 10766 10766 10766 10765 10765 10765 10765 10763 10763 10762 10762 10761 10760 10761 10760 10760 10758 10757 10754
10777 10778 10775 10768 10771 10773 10774 10762 10759 10763 10763 10758 10757 10757 10760 10760 10761 10761 10762 10763 10762 10761 10761 10762 10761 10760 10759 10758 10758 10759 10759 10759 10758 10757 10756 10755 10754 10754 10752 10751 10750 10750 10750 10748 10746 10745 10745 10744 10741
10770 10772 10770 10757 10763 10767 10769 10760 10749 10757 10756 10751 10748 10749 10750 10750 10753 10753 10754 10754 10752 10752 10752 10752 10753 10753 10751 10749 10748 10749 10748 10748 10748 10747 10746 10745 10745 10744 10741 10739 10738 10738 10737 10735 10734 10733 10732 10731 10729
10762 10768 10765 10757 10751 10759 10761 10757 10740 10744 10749 10743 10741 10741 10741 10743 10744 10744 10743 10741 10742 10743 10742 10739 10740 10741 10741 10740 10738 10737 10737 10737 10737 10736 10734 10733 10732 10731 10730 10728 10727 10725 10724 10722 10721 10720 10720 10719 10715
10753 10757 10756 10753 10738 10750 10755 10753 10743 10732 10737 10736 10732 10732 10732 10734 10733 10733 10731 10730 10730 10731 10731 10729 10728 10727 10728 10727 10726 10725 10726 10725 10723 10723 10722 10722 10720 10718 10717 10716 10715 10714 10712 10710 10708 10708 10706 10705 10703
10742 10744 10745 10742 10734 10741 10744 10748 10743 10730 10722 10722 10724 10723 10723 10725 10724 10723 10722 10722 10719 10719 10719 10717 10716 10714 10714 10714 10713 10713 10712 10711 10709 10709 10709 10708 10707 10705 10704 10703 10700 10698 10697 10697 10695 10693 10692 10689 10686
10731 10730 10732 10733 10725 10731 10735 10739 10736 10726 10715 10706 10714 10709 10713 10715 10714 10713 10713 10712 10710 10707 10707 10707 10706 10703 10702 10701 10701 10699 10699 10697 10696 10696 10695 10694 10692 10691 10689 10687 10685 10684 10683 10682 10678 10676 10675 10672 10670
10717 10716 10716 10720 10715 10719 10724 10737 10724 10714 10712 10703 10695 10701 10701 10702 10703 10702 10701 10700 10699 10697 10696 10695 10695 10693 10691 10690 10690 10687 10686 10684 10683 10683 10681 10679 10678 10677 10675 10673 10671 10670 10668 10666 10663 10660 10657 10655 10653
10715 10691 10701 10704 10703 10710 10706 10725 10719 10705 10703 10697 10691 10687 10686 10689 10691 10690 10688 10688 10687 10686 10686 10685 10684 10683 10681 10680 10678 10675 10673 10671 10670 10668 10666 10665 10663 10662 10660 10657 10655 10652 10650 10649 10646 10642 10638 10635 10633
10698 10682 10682 10687 10690 10696 10698 10696 10715 10700 10694 10689 10681 10680 10673 10670 10672 10674 10673 10675 10674 10673 10673 10672 10670 10669 10667 10667 10665 10663 10660 10658 10655 10653 10650 10649 10648 10647 10644 10641 10639 10635 10632 10630 10627 10624 10621 10616 10612
10668 10666 10662 10665 10671 10685 10677 10675 10712 10690 10687 10678 10674 10667 10668 10657 10656 10655 10653 10652 10653 10655 10656 10655 10653 10653 10651 10651 10649 10647 10644 10642 10640 10635 10630 10628 10627 10628 10626 10624 10621 10616 10612 10608 10604 10602 10598 10594 10589
10640 10643 10641 10643 10646 10663 10658 10664 10679 10673 10669 10667 10662 10657 10653 10651 10646 10644 10636 10633 10631 10632 10634 10637 10636 10635 10635 10634 10633 10631 10627 10625 10623 10619 10614 10610 10605 10604 10605 10604 10601 10596 10590 10586 10582 10578 10574 10570 10565
10626 10618 10616 10598 10619 10634 10636 10654 10661 10652 10652 10648 10650 10647 10643 10638 10634 10630 10625 10622 10618 10614 10613 10611 10613 10615 10618 10616 10613 10612 10608 10605 10602 10599 10595 10590 10583 10580 10580 10578 10576 10572 10568 10565 10562 10556 10552 10548 10541
10607 10601 10591 10570 10582 10589 10621 10630 10637 10633 10632 10636 10633 10628 10624 10623 10615 10610 10606 10603 10604 10596 10597 10594 10596 10597 10597 10594 10594 10591 10587 10581 10580 10577 10574 10569 10563 10556 10554 10553 10549 10544 10541 10538 10535 10531 10527 10520 10513
10570 10567 10569 10559 10543 10547 10574 10593 10612 10612 10610 10609 10602 10601 10598 10597 10593 10587 10583 10579 10576 10576 10570 10572 10573 10577 10576 10571 10572 10569 10566 10559 10556 10551 10547 10544 10540 10534 10530 10528 10522 10518 10515 10510 10506 10501 10495 10490 10484
10546 10541 10543 10534 10523 10518 10519 10545 10586 10586 10586 10576 10569 10568 10567 10566 10561 10553 10548 10545 10544 10545 10546 10545 10546 10550 10553 10546 10542 10543 10542 10536 10532 10527 10522 10518 10514 10510 10507 10499 10495 10491 10486 10482 10477 10472 10467 10462 10457
10516 10517 10509 10494 10501 10492 10483 10482 10557 10552 10548 10545 10545 10536 10529 10530 10526 10520 10516 10517 10511 10507 10511 10520 10522 10524 10521 10521 10519 10516 10515 10510 10507 10501 10494 10489 10487 10483 10480 10475 10467 10463 10457 10452 10449 10445 10441 10435 10430